ONEWEB-0268 (48986 NORAD) Tracking and Keplerian Element Data

This shows tracking and keplerian element data for the satellite.

Feedback or suggestion? Click here.




ElementValue
Catalog48986
NameONEWEB-0268
Epoch Orbit1830
Epoch Day300.91667824
Epoch Year2021
RAAN204.9561
Inclination88.1722
Eccentricity0.0005396
Argument of Perigee262.2077
Mean Anonmoly48.2985
Mean Motion13.30065166
Decay Rate-0.00349967
L11 48986U 21060V 21300.91667824 -.00349967 00000-0 -77886+0 0 9998
L22 48986 88.1722 204.9561 0005396 262.2077 48.2985 13.30065166 18300

Live tracking and technical data element details for ONEWEB-0268 (NORAD 48986). ONEWEB-0268 can be tracked NOW for your location showing map with azimuth and elevation plus other details from your city location.

Track the satellite on the map from your city or location and see movement details for azimuth, elevation, latitude, longitude, range, height, and movement on the map or in text.







IsCatalogInMostPopularTable: catalog: 48986, numindb: 25
Update: records affected: 1



GetName: 48986 ONEWEB-0268

Hit Count: updated at: Thu, 28 Oct 2021 11:29:35 GMT